Regional Weather Roundup
Issued by NWS Grand Forks, ND

Home | Current Version | Previous Version | Graphics & Text | Print | Product List | Glossary On
Versions: 1 2 3 4 5 6 7 8 9 10 11 12 13 14 15 16 17 18 19 20 21 22 23 24 25 26 27 28 29 30 31 32 33 34 35 36 37 38 39 40 41 42 43 44 45 46 47 48 49 50
000
ASUS43 KFGF 192010
RWRFGF
PRAIRIE TO PINES  WEATHER ROUNDUP
NATIONAL WEATHER SERVICE EASTERN NORTH DAKOTA/GRAND FORKS ND
200 PM CST FRI JAN 19 2018

 **SATELLITE DATA USED TO AUGMENT SKY COVER AT AUTOMATED STATIONS**
 *****  WEATHER ACROSS EASTERN NORTH DAKOTA  *****

CITY           SKY/WX    TMP DP  RH WIND       PRES   REMARKS
GRAND FORKS    PTSUNNY   39  32  76 NW8       29.48R
GRAND FRKS AFB FAIR      41  31  68 NW9       29.48R
DEVILS LAKE    FAIR      38  30  73 W15         N/A
FARGO          FAIR      40  32  73 W7        29.51R
WAHPETON ARPT  FAIR      37  32  81 W8        29.51S
$$

 ***** WEATHER ACROSS CENTRAL AND WESTERN NORTH DAKOTA  *****

CITY           SKY/WX    TMP DP  RH WIND       PRES   REMARKS
BISMARCK       CLOUDY    43  32  65 W12       29.62R
MINOT          FAIR      42  29  59 W8        29.55R
JAMESTOWN      FAIR      42  31  64 NW15      29.53S
MINOT AFB      FAIR      41  30  65 W13       29.54R
GARRISON         N/A     40  31  70 W9        29.58R
WILLISTON      SUNNY     39  23  52 W14       29.60F
DICKINSON      FAIR      39  31  72 W16       29.60F
HETTINGER      PTSUNNY   38  31  76 W14       29.66F
$$

 *****  OTHER AIRPORT OBSERVATIONS IN OUR AREA  *****

CITY           SKY/WX    TMP DP  RH WIND       PRES   REMARKS
WALHALLA       FAIR      41  34  75 NW12      29.45R
GRAFTON AIRPOR FAIR      39  32  75 W8        29.49R
VALLEY CITY AR FAIR      37  36  93 W16       29.53S
CANDO          FAIR      37  32  81 W17       29.51S
CAVALIER APRT    N/A     39  32  75 W14       29.45R
GWINNER          N/A     43  32  65 NW14      29.52S
SHEYENNE NWR     N/A     44  31  61 NW7       29.95S
ROLLA          FAIR      41  30  65 W14G22    29.47S
 ***** THE ABOVE OBSERVATIONS ARE NON NWS ARE NOT QUALITY
       CONTROLLED AND MAY MIS-REPORT RAIN FOR SNOW...
$$

  *****  WEATHER ACROSS NORTHERN MINNESOTA  *****

CITY           SKY/WX    TMP DP  RH WIND       PRES   REMARKS
FLAG ISLAND    FAIR      41  30  65 W20G33    29.32R
WARROAD        FAIR      39  34  81 W16G22    29.36F
ROSEAU         FAIR      41  34  75 W14G21    29.38F
HALLOCK        FAIR      37  34  87 W8        29.44R
THF RVR FALLS  FAIR      38  31  76 W12       29.45S
BAUDETTE       FAIR      41  31  67 W12       29.33S
WASKISH        PTSUNNY   39  30  70 W13       29.40R
CROOKSTON      FAIR      37  32  81 W10       29.48S
STEPHEN NDAWN    N/A     37  30  75 W12         N/A
GREENBUSH NDAW   N/A     37  30  75 W14         N/A
$$
  *****  WEATHER ACROSS CENTRAL AND WEST MINNESOTA  *****

CITY           SKY/WX    TMP DP  RH WIND       PRES   REMARKS
FOSSTON        FAIR      36  28  75 SW7       29.45F
BEMIDJI        FAIR      41  29  62 W12       29.43F
PARK RAPIDS    FAIR      41  30  65 NW14      29.44R
ELBOW LAKE     FAIR      37  32  81 NW5       29.49F
WADENA         FAIR      43  28  56 NW6       29.45F
DETROIT LAKES  FAIR      41  30  65 NW12      29.48S
MOORHEAD       FAIR      37  32  81 CALM      29.52R
FERGUS FALLS   FAIR      36  30  80 W7        29.49S
MORRIS MN      FAIR      45  32  61 NW17      29.49R
STAPLES        FAIR      39  28  65 W6        29.44S
$$
  *****  WEATHER ELSEWHERE ACROSS MINNESOTA  *****

CITY           SKY/WX    TMP DP  RH WIND       PRES   REMARKS
DULUTH         FAIR      38  28  67 W9        29.38F
INTRNTL FALLS  CLOUDY    42  30  62 W10       29.33S
ELY            FAIR      37  28  70 SW6       29.35F
CLOQUET        FAIR      37  25  60 SW5       29.39F
WHEATON        FAIR      45  28  53 NW9       29.52F
BRAINERD       FAIR      41  29  62 W6        29.43F
HIBBING        PTSUNNY   39  28  64 SW6       29.38F
ALEXANDRIA     FAIR      42  30  62 NW12      29.48S
SAINT CLOUD    FAIR      41  30  65 W8        29.46S
MINNEAPOLIS    PTSUNNY   41  29  62 SW13      29.49S
$$

  *****  WEATHER ACROSS SOUTH DAKOTA  *****

CITY           SKY/WX    TMP DP  RH WIND       PRES   REMARKS
SIOUX FALLS    PTSUNNY   50  36  58 W9        29.54S
BROOKINGS      FAIR      44  33  65 W12       29.53R
WATERTOWN      FAIR      44  31  60 N10       29.51R
HURON          FAIR      46  32  58 NW12      29.56S
SISSETON         N/A     50  29  44 NW16      29.50S
ABERDEEN       FAIR      49  32  52 NW8       29.56S
MITCHELL       FAIR      46  35  65 NW12      29.57S
PIERRE         FAIR      45  31  58 NW12      29.62R
MOBRIDGE       FAIR      43  32  65 NW13      29.60R
RAPID CITY     FAIR      43  31  62 N12       29.68F
$$

  *****  SOME WEATHER IN NEARBY STATES *****

CITY           SKY/WX    TMP DP  RH WIND       PRES   REMARKS
GLASGOW MT     FAIR      36  29  75 W6        29.64S
GREAT FALLS MT FAIR      39  24  55 W15       29.68S
CHEYENNE WY    FAIR      60  19  20 W22G31    29.75F
SCOTTSBLUFF NE FAIR      38  32  79 VRB3      29.67F
OMAHA NE       CLOUDY    46  29  51 S16       29.65F
DES MOINES IA  CLOUDY    46  27  47 SW16      29.68F
DAVENPORT IA   FAIR      43  25  49 S14       29.77F
CHICAGO IL     PTSUNNY   39  24  55 SW18      29.76F
EAU CLAIRE WI  FAIR      39  27  62 S8        29.48F
LA CROSSE WI   FAIR      40  27  59 S16G23    29.55F
$$

  *****  SOME NATIONAL WEATHER *****

CITY           SKY/WX    TMP DP  RH WIND       PRES   REMARKS
LA GUARDIA NY  PTSUNNY   37  15  40 W7        29.97F
RALEIGH NC     FAIR      48  21  34 SW9       30.14F
ATLANTA GA     FAIR      53   6  15 NW6       30.24F
NEW ORLEANS LA PTSUNNY   57  30  35 NE5       30.29F
OKLAHOMA CITY  PTSUNNY   56  24  29 S22       29.92F
ALBUQUERQUE NM PTSUNNY   50  15  24 S7        30.06F
SALT LAKE CITY PTSUNNY   57  29  34 S16G25    29.76F
LOS ANGELES CA PTSUNNY   62  55  77 W12       30.00F
BOISE ID       PTSUNNY   43  32  65 W12G18    29.96S
SEATTLE WA     LGT RAIN  46  37  71 S13G21    29.90S
$$

*** WEATHER ACROSS MANITOBA...SASKATCHEWAN AND ONTARIO ***
                ***ONTARIO***

CITY           SKY/WX    TMP DP  RH WIND       PRES   REMARKS
GERALDTON      CLOUDY    34  30  86 SW12G21   29.24S
THUNDER BAY    CLOUDY    34  28  80 SE3       29.31F
SIOUX LOOKOUT  CLOUDY    36  30  80 W7        29.23R
TORONTO        MOSUNNY   34  21  60 SW16G22   29.80S WCI  23
BIG TROUT LK   LGT SNOW   5   1  85 E6        29.32R WCI  -6
PICKLE LAKE    LGT SNOW  27  25  93 W9        29.16R FOG     WCI  17
DRYDEN         CLOUDY    37  32  81 W14       29.23S
KENORA         CLOUDY    37  32  81 W9G21     29.28R
$$
                *** MANITOBA***

CITY           SKY/WX    TMP DP  RH WIND       PRES   REMARKS
BRANDON        MOSUNNY   36  30  80 W14       29.44F
DAUPHIN        CLOUDY    34  32  93 VRB12     29.40R
ISLAND LAKE    LGT SNOW   9   3  78 N14       29.36R WCI  -8
PILOT MOUND      N/A     36  30  80 W12G17      N/A
THE PAS        LGT SNOW  12   9  85 N3        29.45R
THOMPSON       FLURRIES   1  -4  78 N10       29.53R WCI -14
WINNIPEG       PTSUNNY   34  30  86 NW17      29.40R WCI  23
LYNN LAKE      FLURRIES   0  -4  85 NE10      29.54R WCI -17
CHURCHILL      FLURRIES   3   1  92 NE8       29.72R WCI -10
GILLAM         PTSUNNY    3   0  85 NE14      29.54R WCI -15
$$
                ***SASKATCHEWAN***

CITY           SKY/WX    TMP DP  RH WIND       PRES   REMARKS
ESTEVAN        PTSUNNY   36  27  69 SW10      29.55S
KINDERSLEY     MOSUNNY   36  23  60 W8        29.52S
LLOYDMINSTER   MOSUNNY   36  23  60 W15       29.44R
PRINCE ALBERT  PTSUNNY   37  30  75 NW15G22   29.41R
REGINA         MOSUNNY   37  28  70 W12       29.50F
YORKTON        PTSUNNY   37  32  81 SW9       29.42S
N. BATTLEFORD  MOSUNNY   36  23  60 W14G20    29.48R
LA RONGE       FLURRIES  12   9  85 NE12      29.42R WCI  -2
SASKATOON      PTSUNNY   34  25  69 W10       29.48R
SWIFT CURRENT  SUNNY     37  23  56 W18       29.53S
$$
NOTE: THESE ARE AUTOMATED STATIONS WITH LIMITED QUALITY CONTROL
      "FAIR" INDICATES FEW OR NO CLOUDS BELOW 12,000 FEET WITH NO
      SIGNIFICANT WEATHER AND/OR OBSTRUCTIONS TO VISIBILITY.
      SKY/WX - SKY CONDITION AND SIGNIFICANT WEATHER.
      TMP - AIR TEMPERATURE.    DP   - DEWPOINT TEMPERATURE.
      RH  - RELATIVE HUMIDITY.  PRES - PRESSURE.
      HX  - HEAT INDEX.         WCI  - WIND CHILL INDEX.
$



USA.gov is the U.S. government's official web portal to all federal, state and local government web resources and services.